O3B FM7 (40080 NORAD) Tracking and Keplerian Element Data

This shows tracking and keplerian element data for the satellite.

Feedback or suggestion? Click here.




ElementValue
Catalog40080
NameO3B FM7
Epoch Orbit7333
Epoch Day198.43955175
Epoch Year2018
RAAN16.0442
Inclination0.0436
Eccentricity0.0002625
Argument of Perigee99.1537
Mean Anonmoly244.8258
Mean Motion5.00113455
Decay Rate-2.7E-07
L11 40080U 14038B 18198.43955175 -.00000027 00000-0 00000-0 0 9994
L22 40080 0.0436 16.0442 0002625 99.1537 244.8258 5.00113455 73336

Live tracking and technical data element details for O3B FM7 (NORAD 40080). O3B FM7 can be tracked NOW for your location showing map with azimuth and elevation plus other details from your city location.

Track the satellite on the map from your city or location and see movement details for azimuth, elevation, latitude, longitude, range, height, and movement on the map or in text.







IsCatalogInMostPopularTable: catalog: 40080, numindb: 60
Update: records affected: 1



GetName: 40080 O3B FM7

Hit Count: updated at: Thu, 19 Jul 2018 21:24:45 GMT